Location: Samoth
(37.3328°N, 88.7876°W)
Time: 14:13:31
(UTC+00:00)

H-2A R/B - Pass Details

Date: 29 October 2020
Orbit: 577 x 656 km, 98.5° (Epoch: 03 December)

Event Time Altitude Azimuth Distance (km) Brightness Sun altitude
Rises 23:30:48 0° 1° (N) 2,823 5.3 -6.8°
Reaches altitude 10° 23:33:10 10° 351° (N) 1,910 4.6 -7.2°
Maximum altitude 23:36:45 30° 290° (WNW) 1,057 4.0 -7.9°
Drops below altitude 10° 23:40:19 10° 229° (SW) 1,883 5.6 -8.6°
Sets 23:42:38 0° 218° (SW) 2,776 6.2 -9.1°
